Time,TemperatureF,DewpointF,PressureIn,WindDirection,WindDirectionDegrees,WindSpeedMPH,WindSpeedGustMPH,Humidity,HourlyPrecipIn,Conditions,Clouds,dailyrainin,SoftwareType,DateUTC
2015-09-04 00:03:00,75.0,64.0,29.57,North,354,1.0,-999.0,69,-99.99,,,-99.99,,2015-09-04 05:03:00,
2015-09-04 00:13:00,75.0,64.0,29.58,North,354,1.0,-999.0,69,-99.99,,,-99.99,,2015-09-04 05:13:00,
2015-09-04 00:23:00,75.0,64.0,29.58,NNW,348,2.0,-999.0,69,-99.99,,,-99.99,,2015-09-04 05:23:00,
2015-09-04 00:33:00,75.0,64.0,29.58,NNE,17,1.0,-999.0,69,-99.99,,,-99.99,,2015-09-04 05:33:00,
2015-09-04 00:44:00,75.0,64.0,29.58,NNW,341,2.0,-999.0,69,-99.99,,,-99.99,,2015-09-04 05:44:00,
2015-09-04 00:53:00,75.0,64.0,29.59,NNE,14,1.0,-999.0,69,-99.99,,,-99.99,,2015-09-04 05:53:00,
2015-09-04 01:03:00,75.0,64.0,29.59,NNE,25,2.0,-999.0,69,-99.99,,,-99.99,,2015-09-04 06:03:00,
2015-09-04 01:13:00,75.0,64.0,29.59,NNE,12,1.0,-999.0,69,-99.99,,,-99.99,,2015-09-04 06:13:00,
2015-09-04 01:23:00,75.0,64.0,29.59,NNE,31,0.0,-999.0,69,-99.99,,,-99.99,,2015-09-04 06:23:00,
2015-09-04 01:34:00,75.0,64.0,29.59,NNE,19,1.0,-999.0,69,-99.99,,,-99.99,,2015-09-04 06:34:00,
2015-09-04 01:43:00,75.0,64.0,29.60,North,6,2.0,-999.0,69,-99.99,,,-99.99,,2015-09-04 06:43:00,
2015-09-04 01:53:00,75.0,64.0,29.60,NNE,29,2.0,-999.0,69,-99.99,,,-99.99,,2015-09-04 06:53:00,
2015-09-04 02:03:00,73.0,64.0,29.60,North,356,3.0,-999.0,73,-99.99,,,-99.99,,2015-09-04 07:03:00,
2015-09-04 02:13:00,73.0,64.0,29.59,North,6,3.0,-999.0,73,-99.99,,,-99.99,,2015-09-04 07:13:00,
2015-09-04 02:23:00,73.0,64.0,29.59,North,11,2.0,-999.0,73,-99.99,,,-99.99,,2015-09-04 07:23:00,
2015-09-04 02:33:00,73.0,64.0,29.59,North,358,2.0,-999.0,73,-99.99,,,-99.99,,2015-09-04 07:33:00,
2015-09-04 02:43:00,73.0,64.0,29.59,NNE,21,3.0,-999.0,73,-99.99,,,-99.99,,2015-09-04 07:43:00,
2015-09-04 02:53:00,73.0,64.0,29.59,NNE,17,2.0,-999.0,73,-99.99,,,-99.99,,2015-09-04 07:53:00,
2015-09-04 03:03:00,73.0,64.0,29.59,NNE,21,2.0,-999.0,73,-99.99,,,-99.99,,2015-09-04 08:03:00,
2015-09-04 03:13:00,73.0,64.0,29.58,NNE,12,2.0,-999.0,73,-99.99,,,-99.99,,2015-09-04 08:13:00,
2015-09-04 03:23:00,72.0,63.0,29.59,NE,34,0.0,-999.0,73,-99.99,,,-99.99,,2015-09-04 08:23:00,
2015-09-04 03:33:00,72.0,64.0,29.59,ENE,70,0.0,-999.0,78,-99.99,,,-99.99,,2015-09-04 08:33:00,
2015-09-04 03:43:00,72.0,64.0,29.59,North,0,0.0,-999.0,78,-99.99,,,-99.99,,2015-09-04 08:43:00,
2015-09-04 03:53:00,72.0,64.0,29.59,East,90,0.0,-999.0,78,-99.99,,,-99.99,,2015-09-04 08:53:00,
2015-09-04 04:03:00,72.0,63.0,29.59,NNE,25,1.0,-999.0,73,-99.99,,,-99.99,,2015-09-04 09:03:00,
2015-09-04 04:12:00,72.0,63.0,29.59,North,0,0.0,-999.0,73,-99.99,,,-99.99,,2015-09-04 09:12:00,
2015-09-04 04:23:00,72.0,63.0,29.59,North,0,0.0,-999.0,73,-99.99,,,-99.99,,2015-09-04 09:23:00,
2015-09-04 04:33:00,72.0,63.0,29.60,North,0,0.0,-999.0,73,-99.99,,,-99.99,,2015-09-04 09:33:00,
2015-09-04 04:43:00,72.0,63.0,29.60,North,0,0.0,-999.0,73,-99.99,,,-99.99,,2015-09-04 09:43:00,
2015-09-04 04:53:00,70.0,63.0,29.60,North,0,0.0,-999.0,77,-99.99,,,-99.99,,2015-09-04 09:53:00,
2015-09-04 05:03:00,70.0,63.0,29.60,NNE,27,0.0,-999.0,77,-99.99,,,-99.99,,2015-09-04 10:03:00,
2015-09-04 05:13:00,70.0,63.0,29.60,North,0,0.0,-999.0,77,-99.99,,,-99.99,,2015-09-04 10:13:00,
2015-09-04 05:23:00,72.0,64.0,29.60,NNW,342,1.0,-999.0,78,-99.99,,,-99.99,,2015-09-04 10:23:00,
2015-09-04 05:33:00,72.0,64.0,29.60,North,0,0.0,-999.0,78,-99.99,,,-99.99,,2015-09-04 10:33:00,
2015-09-04 05:43:00,70.0,63.0,29.60,NNW,333,0.0,-999.0,77,-99.99,,,-99.99,,2015-09-04 10:43:00,
2015-09-04 05:53:00,70.0,63.0,29.60,North,0,0.0,-999.0,77,-99.99,,,-99.99,,2015-09-04 10:53:00,
2015-09-04 06:03:00,70.0,64.0,29.60,NNE,17,2.0,-999.0,82,-99.99,,,-99.99,,2015-09-04 11:03:00,
2015-09-04 06:13:00,70.0,63.0,29.60,NNE,17,1.0,-999.0,77,-99.99,,,-99.99,,2015-09-04 11:13:00,
2015-09-04 06:23:00,70.0,63.0,29.60,North,356,2.0,-999.0,77,-99.99,,,-99.99,,2015-09-04 11:23:00,
2015-09-04 06:34:00,70.0,63.0,29.60,North,5,2.0,-999.0,77,-99.99,,,-99.99,,2015-09-04 11:34:00,
2015-09-04 06:44:00,70.0,63.0,29.60,NNE,15,1.0,-999.0,77,-99.99,,,-99.99,,2015-09-04 11:44:00,
2015-09-04 06:53:00,70.0,63.0,29.61,NNE,18,1.0,-999.0,77,-99.99,,,-99.99,,2015-09-04 11:53:00,
2015-09-04 07:03:00,70.0,63.0,29.61,North,4,2.0,-999.0,77,-99.99,,,-99.99,,2015-09-04 12:03:00,
2015-09-04 07:13:00,70.0,64.0,29.61,NNE,15,0.0,-999.0,82,-99.99,,,-99.99,,2015-09-04 12:13:00,
2015-09-04 07:23:00,70.0,64.0,29.61,North,10,1.0,-999.0,82,-99.99,,,-99.99,,2015-09-04 12:23:00,
2015-09-04 07:34:00,70.0,64.0,29.62,North,349,2.0,-999.0,82,-99.99,,,-99.99,,2015-09-04 12:34:00,
2015-09-04 07:44:00,70.0,64.0,29.63,North,355,2.0,-999.0,82,-99.99,,,-99.99,,2015-09-04 12:44:00,
2015-09-04 07:54:00,72.0,64.0,29.63,North,355,3.0,-999.0,78,-99.99,,,-99.99,,2015-09-04 12:54:00,
2015-09-04 08:03:00,72.0,64.0,29.64,North,9,3.0,-999.0,78,-99.99,,,-99.99,,2015-09-04 13:03:00,
2015-09-04 08:13:00,72.0,64.0,29.64,North,0,3.0,-999.0,78,-99.99,,,-99.99,,2015-09-04 13:13:00,
2015-09-04 08:23:00,73.0,64.0,29.65,North,2,1.0,-999.0,73,-99.99,,,-99.99,,2015-09-04 13:23:00,
2015-09-04 08:43:00,73.0,64.0,29.65,NNE,23,2.0,-999.0,73,-99.99,,,-99.99,,2015-09-04 13:43:00,
2015-09-04 08:53:00,73.0,64.0,29.66,NE,45,1.0,-999.0,73,-99.99,,,-99.99,,2015-09-04 13:53:00,
2015-09-04 09:03:00,73.0,64.0,29.66,NE,41,2.0,-999.0,73,-99.99,,,-99.99,,2015-09-04 14:03:00,
2015-09-04 09:13:00,75.0,64.0,29.66,NE,50,1.0,-999.0,69,-99.99,,,-99.99,,2015-09-04 14:13:00,
2015-09-04 09:23:00,75.0,66.0,29.66,NE,38,1.0,-999.0,73,-99.99,,,-99.99,,2015-09-04 14:23:00,
2015-09-04 09:33:00,75.0,64.0,29.65,NE,53,2.0,-999.0,69,-99.99,,,-99.99,,2015-09-04 14:33:00,
2015-09-04 09:43:00,77.0,64.0,29.66,North,10,2.0,-999.0,65,-99.99,,,-99.99,,2015-09-04 14:43:00,
2015-09-04 09:53:00,79.0,64.0,29.66,North,356,2.0,-999.0,61,-99.99,,,-99.99,,2015-09-04 14:53:00,
2015-09-04 10:03:00,79.0,66.0,29.66,NE,52,0.0,-999.0,65,-99.99,,,-99.99,,2015-09-04 15:03:00,
2015-09-04 10:23:00,81.0,66.0,29.66,NNE,17,3.0,-999.0,61,-99.99,,,-99.99,,2015-09-04 15:23:00,
2015-09-04 10:33:00,81.0,66.0,29.65,North,353,5.0,-999.0,61,-99.99,,,-99.99,,2015-09-04 15:33:00,
2015-09-04 10:44:00,81.0,66.0,29.65,NE,41,1.0,-999.0,61,-99.99,,,-99.99,,2015-09-04 15:44:00,
2015-09-04 10:53:00,81.0,66.0,29.66,NNE,15,3.0,-999.0,61,-99.99,,,-99.99,,2015-09-04 15:53:00,
2015-09-04 11:03:00,82.0,66.0,29.66,NE,39,1.0,-999.0,58,-99.99,,,-99.99,,2015-09-04 16:03:00,
2015-09-04 11:13:00,82.0,66.0,29.66,North,2,3.0,-999.0,58,-99.99,,,-99.99,,2015-09-04 16:13:00,
2015-09-04 11:24:00,84.0,66.0,29.66,NNW,346,3.0,-999.0,54,-99.99,,,-99.99,,2015-09-04 16:24:00,
2015-09-04 11:34:00,84.0,64.0,29.66,North,358,3.0,-999.0,51,-99.99,,,-99.99,,2015-09-04 16:34:00,
2015-09-04 11:44:00,84.0,66.0,29.66,North,357,6.0,-999.0,54,-99.99,,,-99.99,,2015-09-04 16:44:00,
2015-09-04 11:54:00,84.0,64.0,29.65,NNE,15,5.0,-999.0,51,-99.99,,,-99.99,,2015-09-04 16:54:00,
2015-09-04 12:04:00,84.0,64.0,29.65,North,3,5.0,-999.0,51,-99.99,,,-99.99,,2015-09-04 17:04:00,
2015-09-04 12:14:00,84.0,64.0,29.64,North,4,6.0,-999.0,51,-99.99,,,-99.99,,2015-09-04 17:14:00,